Starlink 31796

operational
NORAD ID: 59646 Int'l Des: 2024-082 Owner: SPXS Country: US Constellation: starlink
LEOCIRCULAR

About Starlink 31796

Description loading...

Live Position

Loading 3D Globe...

Upcoming Passes

Altitude History

Altitude vs Time

uPlot chart will show altitude changes over time

Two-Line Element Set

1 59646U 24082R 25258.72316458 .00000059 00000-0 11693-4 0 9992
2 59646 43.0051 47.8781 0001852 281.7184 78.3460 15.27581586 78211
Epoch: Sep 15, 2025 • Age: 17 hours

Current Status

Altitude 494.7 km
Velocity 7.62 km/s
Sub-Earth Point -41.71°S, 147.66°E
Launch Date May 3, 2024
Age 1.3 years
Type internet

Technical Details

Classification Payload
Mass 730.00 kg
Dry Mass 700.00 kg
Total Mass 730.00 kg
Length 0.30 m
Diameter 4.10 m
Span 29.00 m
Shape Box + pan
Manufacturer SPXS
Bus Type Starlink V2M
Phase Status In Orbit
Owner/State SPXS/US

Large Constellations

Loading constellations...